RH
28 28 29 31 26 28 32 37 40 40 37 36 37 40 43 49 55 59 58 61 64 57 51 46 42 45 46 47 52 50 65 61 77 91 95 91 93 86 79 71 75 82 95 93 97 95 78 49 54 65 57 51 52 51
27 30 34 34 29 33 38 45 50 47 44 41 36 32 33 38 46 57 57 61 67 71 58 49 44 40 46 43 53 53 54 58 64 84 93 96 92 91 89 88 82 85 82 88 91 75 60 61 61 63 59 58 61 62
25 32 37 34 33 36 39 45 51 51 49 49 48 44 40 35 38 44 49 57 65 68 59 51 37 41 44 42 49 60 44 44 58 71 86 93 93 88 86 80 82 76 77 87 93 60 72 67 67 58 59 63 67 62
29 35 39 36 35 39 39 44 49 51 49 48 47 46 46 47 48 45 41 41 51 62 60 37 39 38 35 38 47 47 43 52 61 80 89 93 92 89 87 86 86 83 87 85 83 69 75 62 65 59 62 61 62 68
37 35 31 32 33 37 39 45 49 49 49 50 49 48 45 48 52 55 54 49 49 53 53 42 35 29 36 43 47 49 54 58 71 93 96 92 91 94 88 86 76 84 82 91 82 69 73 65 63 67 63 59 61 69
41 34 31 36 41 43 47 49 51 47 44 43 43 47 45 47 52 55 52 44 52 58 64 54 44 38 38 44 48 53 54 60 76 91 96 94 89 96 86 73 61 79 81 77 72 68 71 67 61 64 60 62 64 72
42 36 36 43 46 48 49 51 51 49 46 45 42 42 44 45 49 56 44 49 65 68 68 63 48 38 40 47 49 55 64 69 73 87 95 98 97 99 88 76 57 76 77 75 73 70 65 65 60 62 62 64 66 69
46 45 46 50 52 52 53 53 51 49 51 50 47 48 46 45 46 48 38 50 67 62 73 67 50 41 41 55 62 67 76 75 72 88 97 96 97 95 83 66 69 74 78 80 79 79 76 73 70 68 67 66 64 77
54 55 56 56 58 56 54 52 50 48 52 53 52 50 48 47 45 34 45 50 55 61 55 51 52 54 58 64 68 75 81 80 77 87 88 91 87 81 73 77 82 85 88 89 85 82 81 82 80 75 67 66 72 90
62 63 63 62 58 54 51 50 52 52 55 53 50 48 48 50 48 57 71 80 81 77 66 60 61 61 61 70 72 77 81 90 87 74 81 84 73 70 78 83 87 88 88 83 80 76 76 84 89 81 75 72 79 95
67 68 64 60 57 55 53 52 53 57 52 55 58 57 55 61 72 75 76 76 82 80 71 59 59 57 68 74 77 76 79 79 82 73 82 83 74 85 93 93 90 87 81 77 75 75 74 80 85 82 77 85 95 97
69 64 60 56 56 58 59 59 58 58 55 57 57 56 54 58 72 80 80 73 72 65 54 54 55 62 68 80 86 81 73 76 79 85 92 95 91 92 89 87 85 79 77 72 72 74 74 78 82 82 85 96 95 98
63 60 59 57 60 59 62 59 58 59 62 60 54 54 49 47 60 64 65 67 64 58 57 61 67 75 90 92 88 80 77 77 84 84 75 73 80 79 80 79 79 80 76 72 72 76 77 82 86 91 94 95 96 98
60 63 58 58 62 63 60 61 69 70 65 60 62 59 56 56 53 49 50 52 51 63 68 70 74 89 94 93 86 82 70 74 84 83 71 70 71 78 76 76 80 79 77 74 76 79 84 90 93 97 98 98 96 97
65 65 67 69 67 66 67 73 73 71 67 61 60 61 57 45 48 60 65 62 64 65 72 73 76 83 92 96 88 81 75 78 80 72 68 59 66 68 66 67 76 80 80 79 82 83 91 97 97 98 98 97 98 98
69 68 68 72 71 70 73 72 71 68 72 61 57 56 48 55 53 56 62 67 70 74 72 83 93 96 92 87 87 74 73 69 60 65 63 59 56 58 59 65 73 79 85 87 87 87 89 97 98 98 98 97 98 98
68 65 70 76 72 70 71 72 75 72 64 61 55 45 44 44 43 40 51 55 68 70 73 76 90 85 76 84 74 65 63 59 58 65 64 61 59 57 56 64 74 84 89 92 93 93 93 94 98 98 98 98 98 98
65 63 70 68 68 66 66 67 68 68 65 55 53 44 46 47 47 45 43 44 49 55 62 72 75 76 80 69 61 56 58 60 67 69 65 63 67 61 52 56 65 85 90 92 94 94 95 96 96 95 96 97 96 95
57 57 64 62 72 74 69 64 59 57 51 50 48 46 46 45 45 50 55 55 56 57 61 66 64 67 62 53 52 52 61 66 64 63 66 68 65 59 51 55 62 83 97 97 95 94 93 92 93 95 98 98 98 97
60 62 62 69 74 73 72 64 62 62 63 58 58 59 59 55 52 53 56 55 57 63 69 73 63 56 60 57 67 64 65 67 69 73 69 68 64 54 52 52 57 72 92 98 97 97 95 90 89 88 87 89 92 94
66 62 69 66 65 71 73 68 64 60 59 59 56 57 53 50 48 46 47 50 53 55 55 55 58 59 63 68 67 67 70 68 76 70 71 71 64 55 53 53 56 60 77 92 95 93 93 89 82 78 76 77 80 83
57 65 65 66 68 68 63 60 60 53 49 47 44 40 45 51 45 41 42 46 45 42 44 46 43 51 56 58 60 64 67 69 76 72 73 74 67 60 58 53 56 62 68 78 91 92 89 88 84 82 80 80 81 82
70 68 67 64 65 67 62 53 54 51 57 53 50 56 56 53 46 45 55 46 41 47 49 48 50 51 51 48 46 55 65 67 76 79 75 71 69 62 58 53 60 67 74 78 81 89 91 88 83 79 77 78 79 79
66 68 68 69 70 60 54 56 56 58 61 63 65 61 54 49 47 54 52 55 64 59 56 54 52 48 47 49 49 56 62 68 74 80 78 75 75 66 59 54 61 65 69 76 81 84 84 80 77 76 73 74 78 78
67 75 76 74 67 67 65 62 62 65 62 61 64 63 59 61 63 63 65 66 63 65 69 66 64 61 57 57 62 66 72 74 80 80 78 79 76 69 62 57 58 60 61 67 71 73 74 77 80 77 72 69 75 75
68 58 66 75 77 77 78 78 74 71 72 79 77 78 85 90 91 88 85 86 82 80 82 77 76 72 72 73 74 75 75 81 84 83 84 85 78 70 67 60 58 58 60 63 65 68 71 74 77 79 78 76 74 73
69 58 65 70 70 74 86 87 86 89 92 96 97 97 96 95 98 98 96 94 94 92 89 87 87 82 83 80 85 81 84 90 86 88 93 92 80 74 65 61 61 56 57 59 61 64 69 74 77 78 78 78 78 77
72 77 81 75 86 95 98 97 97 94 95 94 91 92 90 90 89 88 86 87 97 98 98 98 96 95 97 96 90 91 96 97 94 97 98 94 85 78 74 73 69 64 59 59 60 59 57 56 55 57 62 70 75 77
85 81 81 84 92 98 98 98 97 94 96 95 92 89 86 80 78 78 80 83 94 98 98 95 97 97 92 98 99 95 97 98 96 98 93 86 84 83 80 78 76 71 67 64 60 57 56 56 57 57 57 58 58 59
95 94 96 95 92 96 95 98 98 96 97 94 90 87 81 76 73 70 74 78 88 97 98 98 98 97 90 95 98 98 95 97 98 98 94 91 88 87 84 81 78 72 69 65 63 61 60 60 60 60 60 61 61 61
99 98 98 97 98 99 99 98 97 99 98 95 91 86 79 75 69 66 69 76 84 93 98 98 98 98 98 97 95 97 97 96 98 98 99 96 97 94 91 89 89 84 80 77 71 67 67 67 68 68 67 66 65 63
99 98 94 91 97 96 98 95 99 99 98 97 95 89 81 74 72 68 71 76 82 87 94 98 98 98 98 98 92 94 97 98 98 98 97 98 98 98 95 94 93 92 90 84 78 74 72 70 69 68 68 66 61 57
98 94 90 86 85 88 93 93 99 97 98 99 97 91 87 80 76 75 78 80 86 91 89 92 95 94 95 98 97 94 96 98 98 99 98 98 98 96 97 96 94 90 83 79 75 74 70 64 58 53 47 41 40 41